Back to catalog

METEOSAT 9

MSG 2

AliveWeatherGEO
NORAD 28912·PAYLOAD·🇪🇺 EU

Launched Dec 21, 2005 from Guiana Space Centre

Loading…

TLE

FreshSource: Space-Track

Epoch: Sep 14, 2026, 14:01 UTC

1 28912U 05049B   26257.58411439  .00000118  00000-0  00000-0 0  9997
2 28912   9.5602  53.2586 0001968 349.4951 206.7994  1.00275087  7895

Track METEOSAT 9 in real time with AllMySat

Download on the App Store